[Iaude] MPEC J107: 2024 JY2 [a=1.85,e=0.40,i=8.9,H=24.9]

mpec at cfa.harvard.edu mpec at cfa.harvard.edu
Tue May 7 06:58:07 EDT 2024


M.P.E.C. 2024-J107                                  Issued 2024 May 7, 10:56 UT

     The Minor Planet Electronic Circulars contain information on unusual
         minor planets, routine data on comets and natural satellites,
         and occasional editorial announcements.  They are published
    on behalf of Division F of the International Astronomical Union by the
          Minor Planet Center, Smithsonian Astrophysical Observatory,
                          Cambridge, MA 02138, U.S.A.
			  
             Prepared using the Tamkin Foundation Computer Network

                              MPC at CFA.HARVARD.EDU
            URL https://www.minorplanetcenter.net/    ISSN 1523-6714

                                    2024 JY2                                    


Observations:
     K24J02Y 1C2024 04 28.24595 13 32 27.85 +01 35 33.2          21.3 GVEJ107G96
     K24J02Y 1C2024 04 28.25155 13 32 28.14 +01 34 59.8          21.5 GVEJ107G96
     K24J02Y 1C2024 04 28.25715 13 32 28.47 +01 34 25.8          21.8 GVEJ107G96
     K24J02Y 1C2024 04 28.26274 13 32 28.70 +01 33 52.6          22.1 GVEJ107G96
     K24J02Y* C2024 05 06.36365213 45 38.238-13 09 47.66         20.80wXEJ107F52
     K24J02Y  C2024 05 06.37558313 45 39.200-13 11 09.06         21.04wXEJ107F52
     K24J02Y  C2024 05 06.38753813 45 40.166-13 12 30.44         21.25wXEJ107F52
     K24J02Y  C2024 05 06.39950213 45 41.134-13 13 52.39         20.72wXEJ107F52
     K24J02Y  C2024 05 06.46093813 45 46.206-13 20 49.50         20.63GVEJ107F52
     K24J02Y  C2024 05 06.46158813 45 46.265-13 20 53.65         20.79GVEJ107F52
     K24J02Y KC2024 05 06.52654913 45 54.946-13 26 51.14         21.0 GVEJ107474
     K24J02Y KC2024 05 06.53151313 45 55.404-13 27 24.44         19.6 GVEJ107474
     K24J02Y KC2024 05 06.53647313 45 55.836-13 27 58.46         20.9 GVEJ107474
     K24J02Y KC2024 05 06.54143613 45 56.275-13 28 32.05         21.0 GVEJ107474
     K24J02Y |C2024 05 07.04169213 46 58.890-14 25 42.00         21.1 GVEJ107807
     K24J02Y |C2024 05 07.04719013 46 59.400-14 26 19.50         20.8 GVEJ107807
     K24J02Y |C2024 05 07.05270013 46 59.920-14 26 57.50         20.7 GVEJ107807
     K24J02Y KC2024 05 07.15984013 47 10.69 -14 40 39.1          20.7 GVEJ107H21
     K24J02Y KC2024 05 07.16202213 47 10.86 -14 40 53.8          20.9 GVEJ107H21
     K24J02Y KC2024 05 07.16486713 47 11.14 -14 41 13.4          20.8 GVEJ107H21
     K24J02Y mC2024 05 07.22100513 47 18.028-14 47 29.83         21.77GVEJ107I52
     K24J02Y mC2024 05 07.22178913 47 18.064-14 47 35.30         21.05GVEJ107I52
     K24J02Y mC2024 05 07.22256613 47 18.168-14 47 40.52         21.08GVEJ107I52
     K24J02Y mC2024 05 07.22335013 47 18.229-14 47 45.82         20.67GVEJ107I52

Observer details:
474 Mount John Observatory, Lake Tekapo.  Observers A. C. Gilmore, P. M.
    Kilmartin.  Measurer P. M. Kilmartin.  1.0-m f/7.7 Reflector + CCD.
807 Cerro Tololo Observatory, La Serena.  Observers T. Linder, R. Holmes.
    0.61-m f/6.8 Ritchey-Chretien + CCD.
F52 Pan-STARRS 2, Haleakala.  Observers J. Herman, T. Lowe, P. Minguez, A.
    Schultz, I. Smith.  Measurers K. Chambers, T. de Boer, J. Fairlamb, H.
    Gao, M. Huber, C.-C. Lin, E. Magnier, Y. Ramanjooloo, R. Wainscoat, R.
    Weryk.  1.8-m Ritchey-Chretien + CCD.
G96 Mt. Lemmon Survey.  Observer T. Beuden.  Measurers B. Gray, D. Rankin, F.
    C. Shelly.  1.5-m reflector + 10K CCD.
H21 Astronomical Research Observatory, Westfield.  Observer R. Holmes.
    Measurers T. Linder, R. Holmes, L. Horn.  0.81-m f/4.0 astrograph + CCD.
I52 Steward Observatory, Mt. Lemmon Station.  Observer H. Groeller.  Measurers
    T. Beuden, V. F. Carvajal, D. Fay, J. B. Fazekas, D. C. Fuls, A. R. Gibbs,
    A. D. Grauer, H. Groeller, J. K. Hogan, R. A. Kowalski, S. M. Larson, G.
    J. Leonard, D. Rankin, R. L. Seaman, F. C. Shelly, K. W. Wierzchos.  1.0-m
    prime focus + CCD.

Orbital elements:
2024 JY2                                                 Earth MOID = 0.1029 AU
Epoch 2024 Mar. 31.0 TT = JDT 2460400.5                 Veres                   
M 346.77749              (2000.0)            P               Q                  
n   0.39136653     Peri.  178.71071     -0.74478096     +0.65884698             
a   1.8510306      Node    43.13305     -0.61362247     -0.61379251             
e   0.3996924      Incl.    8.91350     -0.26223806     -0.43494760             
P   2.52           H   24.98          G   0.15           U   8                  
Residuals in seconds of arc
240428 G96  0.0   0.1-    240506 F52  0.2-  0.1-    240507 807  0.2+  0.0
240428 G96  0.2-  0.2+    240506 F52  0.1-  0.2+    240507 H21  0.2+  0.0
240428 G96  0.2+  0.1-    240506 474  0.1+  0.2-    240507 H21  0.2-  0.2+
240428 G96 (0.9-  0.5+)   240506 474  0.2+  0.3+    240507 H21  0.1+  0.1+
240506 F52  0.0   0.3-    240506 474  0.0   0.0     240507 I52  0.0   0.1-
240506 F52  0.0   0.1-    240506 474  0.2-  0.1+    240507 I52  0.5-  0.2-
240506 F52  0.1-  0.1+    240507 807  0.0   0.3-    240507 I52  0.1+  0.1-
240506 F52  0.1-  0.3-    240507 807  0.0   0.1+    240507 I52  0.1-  0.0

Ephemeris:
2024 JY2                 a,e,i = 1.85, 0.40, 9                   q = 1.1112
Date    TT    R. A. (2000) Decl.     Delta      r    Elong.  Phase     V
2024 04 07    13 13 50.2 +24 34 46   0.1646  1.1446   148.5    27.2    22.6
...
2024 04 22    13 25 01.3 +11 00 05   0.1227  1.1178   155.3    22.1    21.7
...
2024 04 30    13 34 56.2 -01 24 08   0.1100  1.1119   161.0    17.1    21.3
...
2024 05 06    13 44 56.3 -12 27 35   0.1068  1.1114   163.1    15.3    21.2
2024 05 07    13 46 50.9 -14 21 18   0.1068  1.1117   163.1    15.3    21.2
2024 05 08    13 48 50.0 -16 14 46   0.1070  1.1120   162.8    15.5    21.2
...
2024 05 14    14 02 22.3 -27 07 41   0.1119  1.1161   159.4    18.6    21.4
...
2024 05 22    14 24 38.8 -39 00 31   0.1270  1.1268   153.0    24.1    21.9
...
2024 06 06    15 14 47.6 -51 22 22   0.1740  1.1618   145.2    29.9    22.8

M. P. C. Staff               (C) Copyright 2024 MPC           M.P.E.C. 2024-J107





More information about the Iaude mailing list